User: anonymous   Login
Location: Unspecified
(0.0000°N, 0.0000°E)
Time: 07:34:31
(UTC+00:00)
Language:

LANDSAT 8 - Orbit

View from above orbital plane
View from above orbital plane
View from above satellite
View from above satellite

Ground track
Ground track

The orbit data is extracted from the following two-line orbital elements,

1 39084U 13008A   14329.15418087  .00000287  00000-0  73817-4 0  6599
2 39084 098.2055 037.1446 0000806 074.7743 285.3883 14.57104818 94892
Epoch (UTC): 25 November 2014 03:42:01
Eccentricity: 0.0000806
inclination: 98.2055°
perigee height: 702 km
apogee height: 703 km
right ascension of ascending node: 37.1446°
argument of perigee: 74.7743°
revolutions per day: 14.57104818
mean anomaly at epoch: 285.3883°
orbit number at epoch: 9489

The dashed part of the orbit path shows where the satellite is in the earth's shadow,  

DLR